Date String (YYYY-MM-DD hh:mm:ss) UTC,Instrument flags,absolute air pressure of the measurement (hPa),sample flow rate (lpm),inlet stack bypass flow (lpm),air temperature of the measurement (°C),ambient temperature measured by the external sensor (°C),aerosol sample conditioner tube jacket temperature (°C),OPC LED temperature (°C),internal box temperature (°C),relative humidity of the measurement (%),span deviation,mass concentration of particles derived from Lorenz-Mie calculation of OPC scattering (μg/m³),mass concentration of particles derived from Lorenz-Mie calculation of OPC scattering (μg/m³),mass concentration of particles derived from Lorenz-Mie calculation of OPC scattering (μg/m³)
DateTimeUTC,F1_M11,P_M11,Q1_M11,Q2_M11,T1_M11,T2_M11,T3_M11,T4_M11,T5_M11,U1_M11,ZSPAN_M11,X0_M11,X2_M11,X1_M11
2023-07-12 09:00:00,SystemResetWarning,0830.0,5.01,000.00,029.5,025.4,000.0,037.8,030.7,14.7,0000.0,0010.17,0003.79,0003.29
2023-07-12 09:01:00,SystemResetWarning,0830.0,5.01,000.00,029.4,025.8,000.0,037.9,030.6,15.3,0000.0,0010.44,0003.74,0003.28
2023-07-12 09:02:00,SystemResetWarning,0830.1,5.00,000.00,029.3,026.2,000.0,037.9,030.7,15.2,0000.0,0010.12,0003.74,0003.28
2023-07-12 09:03:00,SystemResetWarning,0830.1,5.00,000.00,029.3,026.6,000.0,037.9,030.8,15.5,0000.0,0008.86,0003.73,0003.29
2023-07-12 09:04:00,SystemResetWarning,0830.1,5.00,000.00,029.3,026.9,000.0,037.9,030.8,15.3,0000.0,0008.50,0003.73,0003.30
2023-07-12 09:05:00,SystemResetWarning,0830.1,5.00,000.00,029.4,027.2,000.0,037.9,030.9,15.3,0000.0,0008.54,0003.73,0003.31
2023-07-12 09:06:00,SystemResetWarning,0830.1,4.99,000.00,029.4,027.5,000.0,037.9,030.9,14.9,0000.0,0008.26,0003.78,0003.31
2023-07-12 09:07:00,SystemResetWarning,0830.2,4.99,000.00,029.4,027.7,000.0,037.9,031.0,14.6,0000.0,0008.34,0003.79,0003.31
2023-07-12 09:08:00,SystemResetWarning,0830.2,5.01,000.00,029.4,027.9,000.0,037.9,031.0,14.8,0000.0,0008.90,0003.82,0003.32
2023-07-12 09:09:00,SystemResetWarning,0830.3,5.01,000.00,029.5,028.0,000.0,037.9,031.1,15.1,0000.0,0008.92,0003.80,0003.32
2023-07-12 09:10:00,SystemResetWarning,0830.3,5.00,000.00,029.5,028.1,000.0,038.0,031.1,15.4,0000.0,0009.77,0003.81,0003.31
2023-07-12 09:11:00,SystemResetWarning,0830.3,5.01,000.00,029.5,028.2,000.0,038.0,031.1,15.9,0000.0,0010.25,0003.85,0003.32
2023-07-12 09:12:00,SystemResetWarning,0830.2,4.99,000.00,029.6,028.3,000.0,038.0,031.2,16.0,0000.0,0010.42,0003.89,0003.34
2023-07-12 09:13:00,SystemResetWarning,0830.3,4.99,000.00,029.6,028.4,000.0,038.0,031.2,16.2,0000.0,0010.53,0003.97,0003.35
2023-07-12 09:14:00,SystemResetWarning,0830.2,5.00,000.00,029.6,028.5,000.0,038.0,031.3,16.2,0000.0,0010.89,0004.01,0003.37
2023-07-12 09:15:00,SystemResetWarning,0830.3,5.01,000.00,029.6,028.5,000.0,038.1,031.3,16.1,0000.0,0011.05,0004.02,0003.37
2023-07-12 09:16:00,SystemResetWarning,0830.3,5.00,000.00,029.7,028.6,000.0,038.1,031.3,16.3,0000.0,0011.69,0004.07,0003.38
2023-07-12 09:17:00,SystemResetWarning,0830.2,4.98,000.00,029.7,027.4,000.0,038.0,031.2,16.0,0000.0,0011.85,0004.05,0003.38
2023-07-12 09:18:00,SystemResetWarning,0830.2,5.01,000.00,029.6,025.7,000.0,037.9,030.9,16.0,0000.0,0012.19,0004.06,0003.39
2023-07-12 09:19:00,SystemResetWarning,0830.2,5.02,000.00,029.5,025.5,000.0,037.8,030.8,16.0,0000.0,0011.83,0004.10,0003.42
2023-07-12 09:20:00,SystemResetWarning,0830.2,5.00,000.00,029.4,025.7,000.0,037.9,030.6,16.1,0000.0,0011.39,0004.15,0003.44
2023-07-12 09:21:00,SystemResetWarning,0830.1,5.00,000.00,029.4,026.1,000.0,037.9,030.7,16.2,0000.0,0010.66,0004.22,0003.48
2023-07-12 09:22:00,SystemResetWarning,0830.2,5.00,000.00,029.3,026.5,000.0,037.9,030.7,15.6,0000.0,0010.86,0004.26,0003.50
2023-07-12 09:23:00,SystemResetWarning,0830.2,5.01,000.00,029.3,026.9,000.0,037.9,030.8,14.7,0000.0,0010.95,0004.31,0003.52
2023-07-12 09:24:00,SystemResetWarning,0830.2,5.00,000.00,029.4,027.2,000.0,037.9,030.9,14.1,0000.0,0011.27,0004.29,0003.53
2023-07-12 09:25:00,SystemResetWarning,0830.2,4.98,000.00,029.4,027.4,000.0,037.9,030.9,14.5,0000.0,0011.18,0004.29,0003.54
2023-07-12 09:26:00,SystemResetWarning,0830.2,5.00,000.00,029.4,027.6,000.0,037.9,031.0,15.0,0000.0,0011.47,0004.35,0003.55
2023-07-12 09:27:00,SystemResetWarning,0830.2,5.01,000.00,029.4,027.8,000.0,037.9,031.0,14.0,0000.0,0011.47,0004.40,0003.57
2023-07-12 09:28:00,SystemResetWarning,0830.2,5.01,000.00,029.4,027.9,000.0,037.9,031.0,14.0,0000.0,0012.36,0004.44,0003.60
2023-07-12 09:29:00,SystemResetWarning,0830.1,4.99,000.00,029.5,028.1,000.0,037.9,031.1,14.6,0000.0,0012.38,0004.47,0003.63
2023-07-12 09:30:00,SystemResetWarning,0830.1,5.00,000.00,029.5,028.2,000.0,038.0,031.1,14.2,0000.0,0012.13,0004.46,0003.63
2023-07-12 09:31:00,SystemResetWarning,0830.1,5.00,000.00,029.5,028.3,000.0,038.0,031.2,14.3,0000.0,0012.69,0004.41,0003.62
2023-07-12 09:32:00,SystemResetWarning,0830.1,5.02,000.00,029.6,028.3,000.0,038.0,031.2,14.3,0000.0,0012.85,0004.34,0003.59
2023-07-12 09:33:00,SystemResetWarning,0830.1,4.99,000.00,029.6,028.4,000.0,038.0,031.2,14.0,0000.0,0012.79,0004.31,0003.57
2023-07-12 09:34:00,SystemResetWarning,0830.1,4.99,000.00,029.6,028.5,000.0,038.0,031.3,13.8,0000.0,0012.23,0004.26,0003.55
2023-07-12 09:35:00,SystemResetWarning,0830.1,5.02,000.00,029.7,028.5,000.0,038.1,031.3,13.7,0000.0,0011.91,0004.25,0003.53
2023-07-12 09:36:00,SystemResetWarning,0830.1,4.99,000.00,029.7,028.6,000.0,038.1,031.3,13.2,0000.0,0011.66,0004.30,0003.52
2023-07-12 09:37:00,SystemResetWarning,0830.2,4.98,000.00,029.7,027.9,000.0,038.1,031.3,13.1,0000.0,0011.95,0004.27,0003.52
2023-07-12 09:38:00,SystemResetWarning,0830.1,5.00,000.00,029.6,025.9,000.0,037.9,031.0,13.0,0000.0,0011.58,0004.20,0003.51
2023-07-12 09:39:00,SystemResetWarning,0830.1,5.00,000.00,029.6,025.4,000.0,037.8,030.8,13.3,0000.0,0010.15,0004.14,0003.49
2023-07-12 09:40:00,SystemResetWarning,0830.1,5.01,000.00,029.4,025.6,000.0,037.9,030.6,13.3,0000.0,0009.82,0004.11,0003.47
2023-07-12 09:41:00,SystemResetWarning,0830.1,5.01,000.00,029.4,026.0,000.0,037.9,030.6,13.5,0000.0,0009.77,0004.09,0003.45
2023-07-12 09:42:00,SystemResetWarning,0830.1,4.99,000.00,029.3,026.4,000.0,037.9,030.7,13.3,0000.0,0010.50,0004.08,0003.43
2023-07-12 09:43:00,SystemResetWarning,0830.2,4.99,000.00,029.3,026.7,000.0,037.9,030.8,13.3,0000.0,0010.06,0004.06,0003.42
2023-07-12 09:44:00,SystemResetWarning,0830.2,5.00,000.00,029.3,027.0,000.0,037.9,030.8,13.4,0000.0,0010.02,0004.05,0003.41
2023-07-12 09:45:00,SystemResetWarning,0830.3,5.00,000.00,029.4,027.3,000.0,037.9,030.9,13.3,0000.0,0009.89,0004.02,0003.39
2023-07-12 09:46:00,SystemResetWarning,0830.2,5.01,000.00,029.4,027.5,000.0,037.9,030.9,13.1,0000.0,0009.84,0003.99,0003.38
2023-07-12 09:47:00,SystemResetWarning,0830.2,5.00,000.00,029.4,027.7,000.0,037.9,031.0,13.1,0000.0,0009.70,0003.94,0003.36
2023-07-12 09:48:00,SystemResetWarning,0830.2,4.99,000.00,029.4,027.9,000.0,037.9,031.0,13.0,0000.0,0009.25,0003.89,0003.33
2023-07-12 09:49:00,SystemResetWarning,0830.2,4.99,000.00,029.5,028.0,000.0,037.9,031.1,13.1,0000.0,0009.09,0003.86,0003.30
2023-07-12 09:50:00,SystemResetWarning,0830.2,4.99,000.00,029.5,028.1,000.0,038.0,031.1,13.0,0000.0,0008.95,0003.85,0003.28
2023-07-12 09:51:00,SystemResetWarning,0830.2,5.01,000.00,029.5,028.2,000.0,038.0,031.2,13.6,0000.0,0008.98,0003.84,0003.26
2023-07-12 09:52:00,SystemResetWarning,0830.2,5.00,000.00,029.5,028.3,000.0,038.0,031.2,13.9,0000.0,0009.45,0003.83,0003.24
2023-07-12 09:53:00,SystemResetWarning,0830.3,4.98,000.00,029.6,028.4,000.0,038.0,031.2,14.0,0000.0,0008.59,0003.84,0003.23
2023-07-12 09:54:00,SystemResetWarning,0830.3,5.01,000.00,029.6,028.5,000.0,038.0,031.3,14.1,0000.0,0008.41,0003.83,0003.22
2023-07-12 09:55:00,SystemResetWarning,0830.3,5.01,000.00,029.6,028.5,000.0,038.1,031.3,14.3,0000.0,0008.16,0003.81,0003.22
2023-07-12 09:56:00,SystemResetWarning,0830.3,4.99,000.00,029.7,028.6,000.0,038.1,031.3,15.0,0000.0,0008.41,0003.82,0003.21
2023-07-12 09:57:00,SystemResetWarning,0830.3,4.99,000.00,029.7,028.6,000.0,038.1,031.4,14.9,0000.0,0008.83,0003.82,0003.20
2023-07-12 09:58:00,SystemResetWarning,0830.3,4.99,000.00,029.7,028.4,000.0,038.1,031.4,14.5,0000.0,0009.03,0003.78,0003.19
2023-07-12 09:59:00,SystemResetWarning,0830.2,5.00,000.00,029.7,026.5,000.0,038.0,031.1,14.7,0000.0,0009.01,0003.77,0003.20
